[ hide orbit diagram ]
For accurate long-term ephemerides, please instead use our Horizons system.This orbit viewer was implemented using two-body methods, and hence should not be used for determining accurate long-term trajectories (over several years or decades) or planetary encounter circumstances.
Orbital Elements at Epoch 2459000.5 (2020-May-31.0) TDB
Reference: JPL 8 (heliocentric ecliptic J2000)
Element | Value | Uncertainty (1-sigma) | Units |
e | .07604924485412913 | 1.2338e-07 | |
a | 2.895887991049128 | 3.5499e-08 | au |
q | 2.675657896147701 | 3.6429e-07 | au |
i | 2.025793943937577 | 1.0559e-05 | deg |
node | 306.5028875416978 | 0.00028127 | deg |
peri | 44.90753765710056 | 0.00028473 | deg |
M | 272.8122018649866 | 4.4201e-05 | deg |
tp | 2459436.437546905817 (2021-Aug-09.93754691) | 0.00022387 | TDB |
period | 1799.99403865058 4.93 | 3.3098e-05 9.062e-08 | d yr |
n | .2000006623743515 | 3.6776e-09 | deg/d |
Q | 3.116118085950555 | 3.8199e-08 | au |
|
| | Orbit Determination Parameters
Additional Information
|
[ hide covariance matrix ]
Orbital Elements at Epoch 2456656.5 (2013-Dec-30.0) TDB
Reference: JPL 8 (heliocentric ecliptic J2000)
Element | Value | Uncertainty (1-sigma) | Units |
e | .07571583347542661 | 1.2317e-07 | |
q | 2.675286271248657 | 3.6266e-07 | au |
tp | 2455846.669908504175 (2011-Oct-12.16990850) | 0.00021197 | TDB |
node | 306.5412980488447 | 0.00028138 | deg |
peri | 46.46903459922409 | 0.00028492 | deg |
i | 2.025505149930639 | 1.0558e-05 | deg |
|
| | Orbit Determination Parameters
Additional Information
|
Orbit Covariance (6×6)
|
|
e |
q |
tp |
node |
peri |
i |
e |
1.516979310967473E-14 |
-4.448234775065682E-14 |
-1.745780023880911E-12 |
6.895552727484927E-14 |
-3.532389089299937E-13 |
-6.407078337533657E-15 |
q |
-4.448234775065682E-14 |
1.315255488472476E-13 |
5.393962356681542E-12 |
-1.911317278627987E-13 |
1.16294508751633E-12 |
1.983597096801427E-14 |
tp |
-1.745780023880911E-12 |
5.393962356681542E-12 |
4.493236361549799E-8 |
-3.638157579032265E-11 |
9.660585259352341E-9 |
1.449907862511003E-13 |
node |
6.895552727484927E-14 |
-1.911317278627987E-13 |
-3.638157579032265E-11 |
7.917309211558141E-8 |
-7.912721383072258E-8 |
1.970160542995161E-9 |
peri |
-3.532389089299937E-13 |
1.16294508751633E-12 |
9.660585259352341E-9 |
-7.912721383072258E-8 |
8.117999203725975E-8 |
-1.968813690443256E-9 |
i |
-6.407078337533657E-15 |
1.983597096801427E-14 |
1.449907862511003E-13 |
1.970160542995161E-9 |
-1.968813690443256E-9 |
1.114783360811074E-10 |
|
Physical Parameter Table
Parameter |
Symbol |
Value |
Units |
Sigma |
Reference |
Notes |
absolute magnitude |
H |
16.2 |
|
n/a |
MPO470622 |
|
|
245910 (2006 QV135) Discovered 2006-Aug-28 by CSS at Catalina |
Reference: 20100726/Numbers.arc | Last Updated: 2010-07-28 |
|
|